Location: Aulus
(42.7909°N, 1.3399°E)
Time: 20:29:42
(UTC+00:00)

CZ-4C R/B - Pass Details

Date: 19 May 2025
Orbit: 425 x 537 km, 98.0° (Epoch: 18 June)

Event Time Altitude Azimuth Distance (km) Brightness Sun altitude
Rises 22:49:33 0° 5° (N) 2,593 7.9 -25.6°
Reaches altitude 10° 22:51:45 10° 357° (N) 1,684 6.8 -25.8°
Enters shadow 22:54:33 35° 312° (NW) 797 4.5 -25.9°
